User: anonymous   Login
Location: Владивосток
(43.1151°N, 131.8856°E)
Time: 16:28:08
(UTC+10:00)
Language:

Quikscat - Orbit

View from above orbital plane
View from above orbital plane
View from above satellite
View from above satellite

Ground track
Ground track

The orbit data is extracted from the following two-line orbital elements,

1 25789U 99034A   24197.57467452  .00000716  00000-0  18440-3 0  9993
2 25789  98.3679  74.5858 0096383 273.0513  85.9656 14.50556510310759
Epoch (UTC): 15 July 2024 13:47:31
Eccentricity: 0.0096383
inclination: 98.3679°
perigee height: 655 km
apogee height: 792 km
right ascension of ascending node: 74.5858°
argument of perigee: 273.0513°
revolutions per day: 14.50556510
mean anomaly at epoch: 85.9656°
orbit number at epoch: 31075

The dashed part of the orbit path shows where the satellite is in the earth's shadow,  

DLR